Hourly Data Report for February 11, 2015

All times are specified in Local Standard Time (LST). Add 1 hour to adjust for Daylight Saving Time where and when it is observed.

GERALDTON A
ONTARIO

49°46'58.090" N
86°55'50.050" W
348.40 m
6042716
71834
YGQ

Download Data

Hourly Data (February 2015)
Hourly Data Report for February 11, 2015
Temp Definition
°C
Dew Point Temp Definition
°C
Rel Hum Definition
%
Wind Dir Definition
10's deg

Wind Spd Definition
km/h
Visibility Definition
km
Stn Press Definition
kPa
Hmdx Definition


Wind Chill Definition


Weather Definition


TIME
00:00 -17.1 -19.4 82 9 13 3.2 97.43   -25 Snow
01:00 -17.2 -19.6 82 8 15 3.2 97.29   -26 Snow
02:00 -17.1 -19.5 82 9 17 3.2 97.18   -26 Snow
03:00 -17.0 -19.3 82 9 15 3.2 97.02   -25 Snow
04:00 -16.9 -19.1 83 9 13 3.2 96.89   -25 Snow
05:00 -16.6 -18.9 82 8 13 3.2 96.80   -24 Snow
06:00 -16.6 -18.9 82 8 13 3.2 96.74   -24 Snow
07:00 -17.1 -19.5 82 34 11 3.2 96.77   -24 Snow
08:00 -18.2 -21.1 78 1 17 1.2 96.81   -27 Snow
09:00 -18.8 -21.7 78 36 11 1.6 96.82   -26 Snow
10:00 -19.4 -22.4 77 34 17 1.2 96.90   -29 Snow
11:00 -19.9 -23.0 76 32 15 0.8 96.98   -29 Moderate Snow
12:00 -19.7 -23.7 70 35 22 1.6 97.10   -31 Snow
13:00 -19.9 -23.8 71 34 28 1.2 97.18   -32 Snow
14:00 -19.9 -24.0 70 33 28 1.6 97.26   -32 Snow
15:00 -19.6 -23.5 71 34 24 1.6 97.38   -31 Snow
16:00 -19.5 -23.1 73 36 20 1.6 97.50   -30 Snow
17:00 -19.6 -23.6 70 35 30 4.8 97.66   -32 Snow
18:00 -19.9 -23.8 71 36 20 4.8 97.83   -30 Snow
19:00 -20.6 -24.5 71 36 30 4.8 97.96   -33 Snow
20:00 -21.1 -24.8 72 36 22 8.0 98.08   -32 Snow
21:00 -21.9 -25.5 73 35 19 16.1 98.20   -33 Snow
22:00 -22.5 -26.2 72 36 28 16.1 98.28   -35 Snow
23:00 -23.3 -27.0 72 35 26 19.3 98.38   -36 Snow

Notes on Data Quality.

Legend

  • E = Estimated
  • M = Missing
  • NA = Not Available
  • ‡ = Partner data that is not subject to review by the National Climate Archives
Date modified: